User: anonymous   Login
Location: Eyeline Observatory
(43.2182°N, 78.8632°W)
Time: 09:50:29
(UTC-04:00)
Language:

Vanguard 3 - Orbit

View from above orbital plane
View from above orbital plane
View from above satellite
View from above satellite

Ground track
Ground track

The orbit data is extracted from the following two-line orbital elements,

1 00020U 59007A   18108.43984402  .00000182  00000-0  79714-4 0  9998
2 00020  33.3413 119.7607 1667700  31.0706 337.8589 11.55568009139103
Epoch (UTC): 18 April 2018 10:33:22
Eccentricity: 0.1667700
inclination: 33.3413°
perigee height: 508 km
apogee height: 3264 km
right ascension of ascending node: 119.7607°
argument of perigee: 31.0706°
revolutions per day: 11.55568009
mean anomaly at epoch: 337.8589°
orbit number at epoch: 13910

The dashed part of the orbit path shows where the satellite is in the earth's shadow,  

DLR